Clarksburg, WV

9:01 PM EDT on September 16, 2019 (GMT -0400)
Benedum

Weather History for KCKB - May, 2019

Change the Weather History Date:

Tuesday, May 21, 2019

  Actual Average Record
Temperature  
Mean Temperature 60 °F -  
Max Temperature 68 °F 76 °F 90 °F (1934)
Min Temperature 52 °F 50 °F 34 °F (2002)
Degree Days  
Heating Degree Days 5    
Month to date heating degree days 60  
Growing Degree Days 9 (Base 50)    
Moisture  
Dew Point 43 °F    
Average Humidity 57    
Maximum Humidity 77    
Minimum Humidity 37    
Precipitation  
Precipitation 0.00 in - - ()
Month to date precipitation 2.11  
Year to date precipitation 16.24  
Sea Level Pressure  
Sea Level Pressure 30.08 in    
Wind  
Wind Speed 7 mph (NNE)    
Max Wind Speed 12 mph    
Max Gust Speed 16 mph    
Visibility 10 miles    
Events      
Averages and records for this station are not official NWS values.
T = Trace of Precipitation, MM = Missing Value Source: NWS Daily Summary

Daily Weather History Graph

Daily Weather History Graph

Search for Another Location

Airport or City:

Astronomy

May. 21, 2019 Rise Set
Actual Time 6:02 AM EDT 8:32 PM EDT
Civil Twilight 5:31 AM EDT 9:03 PM EDT
Nautical Twilight 4:53 AM EDT 9:41 PM EDT
Astronomical Twilight 4:11 AM EDT 10:24 PM EDT
Moon 11:26 PM EDT (5/21) 8:17 AM EDT (5/21)
Length of Visible Light 15h 31m
Length of Day
14h 30m
Waning Gibbous, 91% of the Moon is Illuminated
May 21
Waning Gibbous
May 26
Last Quarter
Jun 3
New
Jun 10
First Quarter
Jun 17
Full

Hourly Weather History & Observations

Time (EDT) Temp. Dew Point Humidity Pressure Visibility Wind Dir Wind Speed Gust Speed Precip Events Conditions
12:53 AM 59.0 °F 46.9 °F 64% 30.00 in 10.0 mi NW 6.9 mph - N/A   Clear
1:53 AM 57.0 °F 46.9 °F 69% 30.01 in 10.0 mi NNW 5.8 mph - N/A   Scattered Clouds
2:53 AM 55.9 °F 48.0 °F 75% 30.01 in 10.0 mi NNE 3.5 mph - N/A   Overcast
3:53 AM 55.9 °F 48.0 °F 75% 30.00 in 10.0 mi NNE 5.8 mph - N/A   Overcast
4:53 AM 55.0 °F 45.0 °F 69% 30.02 in 10.0 mi North 11.5 mph - N/A   Overcast
5:14 AM 54.0 °F 44.1 °F 69% 30.06 in 10.0 mi NNE 9.2 mph - N/A   Overcast
5:32 AM 53.1 °F 44.1 °F 71% 30.06 in 10.0 mi North 8.1 mph - N/A   Overcast
5:53 AM 52.0 °F 44.1 °F 74% 30.04 in 10.0 mi North 5.8 mph - N/A   Mostly Cloudy
6:53 AM 52.0 °F 42.1 °F 69% 30.06 in 10.0 mi North 5.8 mph - N/A   Partly Cloudy
7:53 AM 54.0 °F 42.1 °F 64% 30.08 in 10.0 mi NNE 8.1 mph - N/A   Clear
8:53 AM 55.9 °F 43.0 °F 62% 30.09 in 10.0 mi NNE 8.1 mph - N/A   Scattered Clouds
9:03 AM 55.0 °F 43.0 °F 64% 30.12 in 10.0 mi NE 8.1 mph - N/A   Mostly Cloudy
9:29 AM 55.9 °F 44.1 °F 64% 30.13 in 10.0 mi NNE 8.1 mph - N/A   Scattered Clouds
9:53 AM 57.9 °F 44.1 °F 60% 30.12 in 10.0 mi NNE 9.2 mph - N/A   Partly Cloudy
10:53 AM 57.9 °F 43.0 °F 58% 30.12 in 10.0 mi Variable 4.6 mph - N/A   Partly Cloudy
11:53 AM 59.0 °F 43.0 °F 55% 30.09 in 10.0 mi NE 10.4 mph - N/A   Clear
12:53 PM 62.1 °F 41.0 °F 46% 30.11 in 10.0 mi NE 8.1 mph - N/A   Mostly Cloudy
1:53 PM 64.0 °F 39.9 °F 41% 30.09 in 10.0 mi NNW 5.8 mph - N/A   Scattered Clouds
2:53 PM 64.0 °F 39.0 °F 40% 30.09 in 10.0 mi Variable 4.6 mph - N/A   Clear
3:53 PM 66.0 °F 39.9 °F 38% 30.09 in 10.0 mi Variable 6.9 mph - N/A   Clear
4:53 PM 66.9 °F 42.1 °F 40% 30.08 in 10.0 mi NE 3.5 mph - N/A   Clear
5:53 PM 66.9 °F 41.0 °F 39% 30.09 in 10.0 mi North - - N/A   Clear
6:05 PM 66.9 °F 41.0 °F 39% 30.11 in 10.0 mi NNE 6.9 mph - N/A   Clear
6:53 PM 64.0 °F 42.1 °F 45% 30.09 in 10.0 mi NNE 9.2 mph - N/A   Mostly Cloudy
7:53 PM 63.0 °F 43.0 °F 48% 30.09 in 10.0 mi NE 5.8 mph - N/A   Overcast
8:53 PM 61.0 °F 43.0 °F 52% 30.09 in 10.0 mi NE 6.9 mph - N/A   Overcast
9:53 PM 59.0 °F 43.0 °F 55% 30.10 in 10.0 mi NE 5.8 mph - N/A   Mostly Cloudy
10:53 PM 57.9 °F 44.1 °F 60% 30.12 in 10.0 mi NNE 3.5 mph - N/A   Overcast
11:53 PM 57.0 °F 45.0 °F 64% 30.11 in 10.0 mi NNE 3.5 mph - N/A   Overcast